Flag for French Polynesia Weather past 2 weeks in Papeete, Tahiti, French Polynesia

Now
79 °F

Passing clouds.


Feels Like: 81 °F
Forecast: 78 / 87 °F
Wind: 6 mph from South

Location: Tahiti-Faaa

Current Time: Apr 26, 2015 at 3:33:45 AM

Latest Report: Apr 26, 2015 at 3:00 AM


Visibility: N/A

Pressure: 29.89 "Hg

Humidity: 74%

Dew point: 70 °F

Location of PapeeteLocation

Historic Weather in Papeete — Graph

°F

Papeete temperature yesterday

Maximum temperature yesterday: 88 °F (at 12:00 PM)
Minimum temperature yesterday: 75 °F (at 3:30 AM)
Average temperature yesterday: 81 °F

Past Weeks' High & Low Weather Summary

 TemperatureHumidityPressure
High90 °F (Apr 12, 12:30 PM)94% (Apr 23, 1:00 AM)30.04 "Hg (Apr 23, 1:00 AM)
Low75 °F (Apr 13, 3:00 AM)55% (Apr 16, 3:00 PM)29.80 "Hg (Apr 20, 1:00 PM)
Average81 °F74%29.91 "Hg
* Reported Apr 11 2:00 AM — Apr 26 2:00 AM, Papeete, Weather by CustomWeather, © 2015

Note: Actual official high and low records may vary slightly from our data, if they occured in-between our weather recording intervals... More about our weather records

Advertising

Papeete weather history for previous 24 hours

 ConditionsComfort  
Time TempWeatherWind HumidityBarometerVisibility
2:00 AM
Sun, Apr 26
77 °FPassing clouds.5 mph79%29.92 "HgN/A
1:30 AM77 °FPassing clouds.6 mph79%29.92 "HgN/A
1:00 AM77 °FPassing clouds.3 mph79%29.92 "HgN/A
12:30 AM77 °FPassing clouds.5 mph79%29.95 "HgN/A
12:00 AM77 °FPassing clouds.2 mph79%29.95 "HgN/A
11:30 PM
Sat, Apr 25
77 °FPassing clouds.2 mph79%29.95 "HgN/A
11:00 PM77 °FPassing clouds.2 mph79%29.95 "HgN/A
10:30 PM79 °FPassing clouds.2 mph74%29.95 "HgN/A
10:00 PM79 °FPassing clouds.2 mph74%29.98 "HgN/A
9:30 PM79 °FPassing clouds.3 mph74%29.98 "HgN/A
9:00 PM81 °FPassing clouds.3 mph70%29.98 "HgN/A
8:00 PM81 °FPassing clouds.2 mph74%29.98 "HgN/A
7:30 PM82 °FPassing clouds.3 mph70%29.95 "HgN/A
7:00 PM82 °FPassing clouds.3 mph70%29.95 "HgN/A
6:30 PM84 °FPassing clouds.5 mph66%29.92 "HgN/A
6:00 PM84 °FPassing clouds.7 mph62%29.92 "HgN/A
5:30 PM84 °FScattered clouds.6 mph62%29.92 "HgN/A
5:00 PM86 °FScattered clouds.5 mph62%29.89 "HgN/A
4:30 PM86 °FScattered clouds.3 mph59%29.89 "HgN/A
4:00 PM86 °FScattered clouds.10 mph62%29.89 "HgN/A
3:30 PM86 °FScattered clouds.16 mph62%29.89 "HgN/A
3:00 PM88 °FScattered clouds.15 mph59%29.89 "HgN/A
2:30 PM86 °FScattered clouds.17 mph62%29.89 "HgN/A
2:00 PM88 °FScattered clouds.6 mph59%29.89 "HgN/A
1:30 PM88 °FScattered clouds.7 mph62%29.89 "HgN/A
1:00 PM88 °FScattered clouds.8 mph59%29.89 "HgN/A
12:30 PM88 °FScattered clouds.14 mph59%29.92 "HgN/A
12:00 PM88 °FScattered clouds.2 mph55%29.92 "HgN/A
11:00 AM86 °FScattered clouds.5 mph62%29.95 "HgN/A
10:30 AM86 °FPassing clouds.3 mph66%29.98 "HgN/A
10:00 AM86 °FPassing clouds.3 mph66%29.98 "HgN/A
9:30 AM86 °FPassing clouds.2 mph66%29.98 "HgN/A
9:00 AM84 °FPassing clouds.3 mph66%29.98 "HgN/A
8:30 AM84 °FPassing clouds.3 mph62%29.95 "HgN/A
8:00 AM82 °FPassing clouds.2 mph70%29.95 "HgN/A
7:30 AM81 °FPassing clouds.5 mph70%29.95 "HgN/A
7:00 AM77 °FPassing clouds.2 mph74%29.95 "HgN/A
6:30 AM75 °FPassing clouds.3 mph78%29.95 "HgN/A
6:00 AM75 °FPassing clouds.1 mph78%29.95 "HgN/A
5:30 AM75 °FMild.5 mph78%29.95 "HgN/A
5:00 AM75 °FMild.6 mph83%29.95 "HgN/A
4:30 AM77 °FWarm.5 mph83%29.92 "HgN/A
4:00 AM77 °FWarm.7 mph83%29.92 "HgN/A
3:30 AM75 °FMild.No wind89%29.92 "HgN/A
3:00 AM77 °FPassing clouds.3 mph79%29.92 "HgN/A
Weather by CustomWeather, © 2015

See weather overviewHow to use our weather pages